Date String (YYYY-MM-DD hh:mm:ss) UTC,Instrument flags,absolute air pressure of the measurement (hPa),sample flow rate (lpm),inlet stack bypass flow (lpm),air temperature of the measurement (°C),ambient temperature measured by the external sensor (°C),aerosol sample conditioner tube jacket temperature (°C),OPC LED temperature (°C),internal box temperature (°C),relative humidity of the measurement (%),span deviation,mass concentration of particles derived from Lorenz-Mie calculation of OPC scattering (μg/m³),mass concentration of particles derived from Lorenz-Mie calculation of OPC scattering (μg/m³),mass concentration of particles derived from Lorenz-Mie calculation of OPC scattering (μg/m³)
DateTimeUTC,F1_M11,P_M11,Q1_M11,Q2_M11,T1_M11,T2_M11,T3_M11,T4_M11,T5_M11,U1_M11,ZSPAN_M11,X0_M11,X2_M11,X1_M11
2024-03-28 18:00:00,SystemResetWarning,0824.5,5.00,000.00,020.6,020.2,000.0,028.8,022.3,16.5,0000.0,0008.95,0003.92,0003.46
2024-03-28 18:01:00,SystemResetWarning,0824.5,5.00,000.00,020.6,020.2,000.0,028.8,022.3,15.8,0000.0,0009.01,0004.05,0003.57
2024-03-28 18:02:00,SystemResetWarning,0824.4,5.00,000.00,020.6,020.2,000.0,028.8,022.4,16.3,0000.0,0009.12,0004.17,0003.67
2024-03-28 18:03:00,SystemResetWarning,0824.4,5.00,000.00,020.6,020.2,000.0,028.8,022.4,16.0,0000.0,0009.07,0004.24,0003.75
2024-03-28 18:04:00,SystemResetWarning,0824.4,4.99,000.00,020.6,020.2,000.0,028.8,022.4,16.3,0000.0,0009.31,0004.31,0003.82
2024-03-28 18:05:00,SystemResetWarning,0824.4,5.00,000.00,020.7,020.3,000.0,028.9,022.4,15.4,0000.0,0009.62,0004.33,0003.85
2024-03-28 18:06:00,SystemResetWarning,0824.4,5.00,000.00,020.7,020.3,000.0,028.9,022.4,15.5,0000.0,0009.62,0004.34,0003.86
2024-03-28 18:07:00,SystemResetWarning,0824.4,5.00,000.00,020.7,020.3,000.0,028.9,022.5,15.6,0000.0,0009.61,0004.35,0003.87
2024-03-28 18:08:00,SystemResetWarning,0824.3,5.00,000.00,020.7,020.3,000.0,028.9,022.5,16.0,0000.0,0009.72,0004.37,0003.89
2024-03-28 18:09:00,SystemResetWarning,0824.3,5.00,000.00,020.7,020.3,000.0,028.9,022.5,16.2,0000.0,0009.91,0004.40,0003.91
2024-03-28 18:10:00,SystemResetWarning,0824.2,5.00,000.00,020.7,020.3,000.0,028.9,022.5,16.1,0000.0,0009.32,0004.41,0003.93
2024-03-28 18:11:00,SystemResetWarning,0824.1,5.00,000.00,020.8,020.4,000.0,029.0,022.5,16.4,0000.0,0008.50,0004.40,0003.95
2024-03-28 18:12:00,SystemResetWarning,0824.1,5.00,000.00,020.8,020.4,000.0,029.0,022.6,15.8,0000.0,0008.03,0004.39,0003.94
2024-03-28 18:13:00,SystemResetWarning,0824.2,5.00,000.00,020.8,020.4,000.0,029.0,022.6,16.2,0000.0,0008.04,0004.41,0003.96
2024-03-28 18:14:00,SystemResetWarning,0824.1,5.00,000.00,020.8,020.4,000.0,029.0,022.6,16.0,0000.0,0008.10,0004.44,0003.99
2024-03-28 18:15:00,SystemResetWarning,0824.1,5.01,000.00,020.8,020.4,000.0,029.0,022.6,16.0,0000.0,0008.02,0004.49,0004.01
2024-03-28 18:16:00,SystemResetWarning,0824.2,5.00,000.00,020.9,020.4,000.0,029.0,022.6,16.1,0000.0,0007.88,0004.56,0004.05
2024-03-28 18:17:00,SystemResetWarning,0824.2,5.00,000.00,020.9,020.5,000.0,029.1,022.6,15.4,0000.0,0008.14,0004.61,0004.07
2024-03-28 18:18:00,SystemResetWarning,0824.2,5.00,000.00,020.9,020.5,000.0,029.1,022.7,15.7,0000.0,0008.96,0004.69,0004.08
2024-03-28 18:19:00,SystemResetWarning,0824.1,5.01,000.00,020.9,020.5,000.0,029.1,022.7,16.7,0000.0,0008.97,0004.70,0004.11
2024-03-28 18:20:00,SystemResetWarning,0824.0,4.99,000.00,020.9,020.5,000.0,029.1,022.7,16.2,0000.0,0008.93,0004.80,0004.20
2024-03-28 18:21:00,SystemResetWarning,0823.9,5.00,000.00,020.9,020.5,000.0,029.1,022.7,16.5,0000.0,0009.64,0004.92,0004.27
2024-03-28 18:22:00,SystemResetWarning,0823.9,4.99,000.00,021.0,020.5,000.0,029.1,022.7,16.0,0000.0,0009.90,0005.01,0004.34
2024-03-28 18:23:00,SystemResetWarning,0823.8,5.00,000.00,021.0,020.6,000.0,029.2,022.8,16.4,0000.0,0010.14,0005.08,0004.40
2024-03-28 18:24:00,SystemResetWarning,0823.8,5.01,000.00,021.0,020.6,000.0,029.2,022.8,16.1,0000.0,0010.45,0005.12,0004.45
2024-03-28 18:25:00,SystemResetWarning,0823.8,5.01,000.00,021.0,020.6,000.0,029.2,022.8,16.6,0000.0,0010.41,0005.16,0004.50
2024-03-28 18:26:00,SystemResetWarning,0823.8,4.99,000.00,021.0,020.6,000.0,029.2,022.8,16.0,0000.0,0010.46,0005.20,0004.56
2024-03-28 18:27:00,SystemResetWarning,0823.8,5.00,000.00,021.0,020.6,000.0,029.2,022.8,15.9,0000.0,0011.39,0005.26,0004.63
2024-03-28 18:28:00,SystemResetWarning,0823.8,5.00,000.00,021.1,020.6,000.0,029.3,022.8,16.3,0000.0,0011.47,0005.38,0004.74
2024-03-28 18:29:00,SystemResetWarning,0823.8,4.99,000.00,021.1,020.6,000.0,029.3,022.8,16.0,0000.0,0011.55,0005.53,0004.89
2024-03-28 18:30:00,SystemResetWarning,0823.8,5.01,000.00,021.1,020.7,000.0,029.3,022.8,15.6,0000.0,0012.79,0005.73,0005.03
2024-03-28 18:31:00,SystemResetWarning,0823.8,5.01,000.00,021.1,020.7,000.0,029.3,022.9,16.2,0000.0,0013.68,0005.84,0005.12
2024-03-28 18:32:00,SystemResetWarning,0823.8,4.99,000.00,021.1,020.7,000.0,029.3,022.9,16.2,0000.0,0013.39,0005.94,0005.23
2024-03-28 18:33:00,SystemResetWarning,0823.8,4.99,000.00,021.1,020.7,000.0,029.3,022.9,16.6,0000.0,0013.35,0006.02,0005.31
2024-03-28 18:34:00,SystemResetWarning,0823.7,5.01,000.00,021.2,020.7,000.0,029.4,022.9,16.2,0000.0,0013.42,0006.09,0005.39
2024-03-28 18:35:00,SystemResetWarning,0823.6,5.00,000.00,021.2,020.7,000.0,029.4,023.0,16.1,0000.0,0013.46,0006.16,0005.44
2024-03-28 18:36:00,SystemResetWarning,0823.6,5.00,000.00,021.2,020.8,000.0,029.4,023.0,16.2,0000.0,0013.67,0006.22,0005.49
2024-03-28 18:37:00,SystemResetWarning,0823.6,4.99,000.00,021.2,020.8,000.0,029.4,023.0,15.8,0000.0,0013.86,0006.31,0005.53
2024-03-28 18:38:00,SystemResetWarning,0823.5,4.99,000.00,021.2,020.8,000.0,029.4,023.0,16.1,0000.0,0013.24,0006.41,0005.58
2024-03-28 18:39:00,SystemResetWarning,0823.5,5.00,000.00,021.3,020.8,000.0,029.4,023.0,16.1,0000.0,0014.23,0006.46,0005.60
2024-03-28 18:40:00,SystemResetWarning,0823.5,5.00,000.00,021.3,020.9,000.0,029.5,023.1,15.9,0000.0,0013.98,0006.46,0005.62
2024-03-28 18:41:00,SystemResetWarning,0823.4,5.00,000.00,021.3,020.9,000.0,029.5,023.1,15.9,0000.0,0013.50,0006.42,0005.60
2024-03-28 18:42:00,SystemResetWarning,0823.4,5.00,000.00,021.3,020.9,000.0,029.5,023.1,16.1,0000.0,0012.99,0006.40,0005.57
2024-03-28 18:43:00,SystemResetWarning,0823.5,5.01,000.00,021.3,020.9,000.0,029.5,023.1,15.9,0000.0,0013.17,0006.36,0005.54
2024-03-28 18:44:00,SystemResetWarning,0823.5,5.00,000.00,021.3,020.9,000.0,029.5,023.1,15.5,0000.0,0013.46,0006.37,0005.55
2024-03-28 18:45:00,SystemResetWarning,0823.4,5.00,000.00,021.4,020.9,000.0,029.6,023.2,15.6,0000.0,0013.60,0006.37,0005.55
2024-03-28 18:46:00,SystemResetWarning,0823.4,5.00,000.00,021.4,021.0,000.0,029.6,023.2,16.2,0000.0,0014.08,0006.38,0005.56
2024-03-28 18:47:00,SystemResetWarning,0823.4,5.00,000.00,021.4,021.0,000.0,029.6,023.2,16.2,0000.0,0014.50,0006.41,0005.56
2024-03-28 18:48:00,SystemResetWarning,0823.4,5.00,000.00,021.4,021.0,000.0,029.6,023.2,15.9,0000.0,0014.42,0006.41,0005.56
2024-03-28 18:49:00,SystemResetWarning,0823.4,5.00,000.00,021.4,021.0,000.0,029.6,023.2,16.2,0000.0,0014.51,0006.32,0005.55
2024-03-28 18:50:00,SystemResetWarning,0823.4,5.00,000.00,021.5,021.1,000.0,029.7,023.3,15.9,0000.0,0013.93,0006.28,0005.54
2024-03-28 18:51:00,SystemResetWarning,0823.4,5.00,000.00,021.5,021.1,000.0,029.7,023.3,15.7,0000.0,0014.31,0006.26,0005.53
2024-03-28 18:52:00,SystemResetWarning,0823.4,5.00,000.00,021.5,021.1,000.0,029.7,023.3,15.9,0000.0,0014.23,0006.25,0005.51
2024-03-28 18:53:00,SystemResetWarning,0823.4,5.00,000.00,021.5,021.1,000.0,029.7,023.3,16.3,0000.0,0014.51,0006.23,0005.49
2024-03-28 18:54:00,SystemResetWarning,0823.3,5.00,000.00,021.5,021.1,000.0,029.7,023.3,16.1,0000.0,0014.70,0006.22,0005.46
2024-03-28 18:55:00,SystemResetWarning,0823.3,5.00,000.00,021.6,021.2,000.0,029.7,023.4,16.5,0000.0,0014.53,0006.20,0005.42
2024-03-28 18:56:00,SystemResetWarning,0823.3,5.00,000.00,021.6,021.2,000.0,029.8,023.4,15.9,0000.0,0014.60,0006.21,0005.39
2024-03-28 18:57:00,SystemResetWarning,0823.3,5.00,000.00,021.6,021.2,000.0,029.8,023.4,15.7,0000.0,0014.62,0006.20,0005.36
2024-03-28 18:58:00,SystemResetWarning,0823.3,5.00,000.00,021.6,021.2,000.0,029.8,023.4,15.8,0000.0,0014.23,0006.14,0005.32
2024-03-28 18:59:00,SystemResetWarning,0823.3,5.00,000.00,021.6,021.2,000.0,029.8,023.4,15.8,0000.0,0014.59,0006.10,0005.27
